Waarnemingen

Advertentie
Mijn weer
Dorans, Frankrijk (7296): temperatuur & dauwpunt: 17.01.2018 04:00:00 - 23.01.2018 04:00:00 (CET)Dorans, Frankrijk (7296): temperatuur 5cm: 17.01.2018 04:00:00 - 23.01.2018 04:00:00 (CET)Dorans, Frankrijk (7296): temperatuur -20cm & temperatuur -100cm: 17.01.2018 04:00:00 - 23.01.2018 04:00:00 (CET)Dorans, Frankrijk (7296): windsnelheid & windstoten: 17.01.2018 04:00:00 - 23.01.2018 04:00:00 (CET)Dorans, Frankrijk (7296): windrichting: 17.01.2018 04:00:00 - 23.01.2018 04:00:00 (CET)Dorans, Frankrijk (7296): luchtdruk: 17.01.2018 04:00:00 - 23.01.2018 04:00:00 (CET)Dorans, Frankrijk (7296): zicht: 17.01.2018 04:00:00 - 23.01.2018 04:00:00 (CET)Dorans, Frankrijk (7296): neerslag: 17.01.2018 04:00:00 - 23.01.2018 04:00:00 (CET)
Datum & Tijd tt [°C] td [°C] tt 5cm [°C] tt -20cm [°C] tt -100cm [°C] ff [km/u] ff [kn] fx [km/u] fx [kn] dd ppp [hPa] vv [km] rr [mm]
23.01.2018 04:00:00 5,9 4,7 5,3 6,4 6,7 9 5 26 14 W 1026,2 11 0,2
23.01.2018 03:00:00 6,6 4,3 6,0 6,5 6,7 16 8 29 16 W 1025,2 20 0,0
23.01.2018 02:00:00 6,5 5,0 5,9 6,5 6,7 11 6 40 22 W 1024,1 20 0,0
23.01.2018 01:00:00 6,7 4,5 6,2 6,5 6,7 16 9 37 20 W 1023,8 20 0,0
23.01.2018 00:00:00 7,4 6,0 6,7 6,5 6,7 17 9 39 21 WNW 1023,0 12 0,0
22.01.2018 23:00:00 8,0 6,5 6,8 6,5 6,7 19 10 42 23 NW 1021,3 20 0,0
22.01.2018 22:00:00 8,6 7,2 7,2 6,5 6,7 10 6 31 17 W 1019,9 20 0,0
22.01.2018 21:00:00 8,2 7,0 6,9 6,5 6,7 15 8 31 17 W 1018,7 20 0,2
22.01.2018 20:00:00 8,9 7,8 7,9 6,5 6,7 14 8 41 22 W 1017,3 20 0,0
22.01.2018 19:00:00 9,8 8,6 9,0 6,4 6,7 23 13 44 24 W 1015,7 4,1 0,6
22.01.2018 18:00:00 10,0 8,9 9,2 6,3 6,7 26 14 48 26 WZW 1014,0 10 4,3
22.01.2018 17:00:00 9,8 8,7 9,2 6,2 6,7 23 12 59 32 WZW 1012,4 8 0,8
22.01.2018 16:00:00 10,1 8,9 9,4 6,1 6,7 27 15 67 36 W 1011,7 11 0,6
22.01.2018 15:00:00 10,1 9,2 9,5 5,9 6,8 27 15 55 30 WZW 1010,4 11 2,2
22.01.2018 14:00:00 10,1 9,2 9,4 5,8 6,8 23 12 54 29 WZW 1010,0 7 4,0
22.01.2018 13:00:00 9,9 9,1 9,4 5,7 6,8 24 13 46 25 ZW 1010,7 9 3,9
22.01.2018 12:00:00 9,9 9,1 9,4 5,6 6,8 22 12 45 24 ZW 1011,8 4,7 0,6
22.01.2018 11:00:00 9,7 8,9 9,1 5,5 6,8 18 10 38 20 ZW 1012,8 3,9 1,6
22.01.2018 10:00:00 9,6 8,7 8,7 5,4 6,8 26 14 44 24 WZW 1013,3 20 1,0
22.01.2018 09:00:00 9,2 8,4 8,5 5,3 6,8 24 13 47 25 ZW 1013,3 4,5 0,4
22.01.2018 08:00:00 9,0 8,2 8,4 5,2 6,8 27 14 49 26 WZW 1013,1 6 0,4
22.01.2018 07:00:00 8,9 8,3 8,4 5,2 6,8 22 12 43 23 ZW 1013,3 4,2 0,4
22.01.2018 06:00:00 8,9 8,1 8,3 5,1 6,8 22 12 41 22 WZW 1013,1 6 0,4
22.01.2018 05:00:00 8,8 8,2 8,3 5,0 6,8 23 12 45 25 WZW 1012,8 2,7 1,6
22.01.2018 04:00:00 8,8 8,0 8,1 5,1 6,8 24 13 54 29 WZW 1012,5 3,6 2,0
22.01.2018 03:00:00 8,7 8,1 3,0 5,1 6,8 24 13 42 23 WZW 1012,6 9 3,0
22.01.2018 02:00:00 2,7 2,4 1,7 5,2 6,9 6 4 13 7 W 1014,1 2,8 2,6
22.01.2018 01:00:00 1,6 1,2 1,4 5,2 6,9 1 1 5 3 WZW 1015,0 3,5 2,3
22.01.2018 00:00:00 1,6 1,2 1,6 5,2 6,8 5 3 10 5 NNO 1016,3 2,2 1,8
21.01.2018 23:00:00 1,6 1,2 1,7 5,3 6,9 5 3 12 7 ONO 1017,1 1,9 0,6
21.01.2018 22:00:00 2,0 1,4 2,0 5,3 6,9 9 5 11 6 NO 1018,1 4,1 0,6
21.01.2018 21:00:00 2,3 1,4 2,1 5,3 6,8 6 3 9 5 OZO 1018,9 9 0,4
21.01.2018 20:00:00 2,4 1,5 2,1 5,3 6,8 3 2 5 3 OZO 1019,6 10 0,6
21.01.2018 19:00:00 2,7 1,5 2,2 5,4 6,8 0 0 6 3 ZW 1019,8 12 0,6
21.01.2018 18:00:00 3,1 1,5 2,5 5,4 6,9 3 2 6 4 W 1019,9 12 0,4
21.01.2018 17:00:00 3,7 1,1 3,1 5,3 6,8 3 2 16 9 WNW 1019,9 20 0,0
21.01.2018 16:00:00 4,0 0,5 4,1 5,3 6,9 7 4 21 11 W 1019,5 20 0,0
21.01.2018 15:00:00 4,1 0,4 4,6 5,2 6,8 12 6 24 13 W 1019,4 20 0,0
21.01.2018 14:00:00 4,3 1,0 4,6 5,2 6,8 9 5 22 12 W 1019,2 20 0,0
21.01.2018 13:00:00 3,9 0,1 4,6 5,2 6,8 9 5 22 12 W 1019,4 20 0,0
21.01.2018 12:00:00 3,9 0,1 4,2 5,2 6,9 8 4 22 12 WNW 1019,3 20 0,0
21.01.2018 11:00:00 3,6 1,1 3,7 5,2 6,9 9 5 27 15 WNW 1019,1 20 0,0
21.01.2018 10:00:00 3,5 1,5 3,3 5,2 6,9 12 6 30 16 WNW 1017,7 20 0,0
21.01.2018 09:00:00 3,8 2,3 3,3 5,3 6,9 13 7 26 14 W 1016,6 20 0,0
21.01.2018 08:00:00 4,3 2,8 3,6 5,3 6,9 13 7 34 18 WNW 1014,9 20 0,0
21.01.2018 07:00:00 4,8 2,8 4,1 5,3 6,9 13 7 42 23 W 1013,6 20 0,0
21.01.2018 06:00:00 5,2 3,0 4,8 5,2 6,9 13 7 29 16 W 1012,3 20 0,0
21.01.2018 05:00:00 5,4 3,4 4,8 5,2 6,9 14 7 43 23 W 1011,1 20 0,0
21.01.2018 04:00:00 6,0 3,7 5,2 5,2 6,9 18 10 44 24 WNW 1009,5 20 0,4
21.01.2018 03:00:00 6,7 5,3 6,0 5,1 6,9 17 9 49 26 W 1007,9 17 0,4
21.01.2018 02:00:00 6,9 5,7 6,2 5,1 6,9 21 12 48 26 W 1005,8 20 0,0
21.01.2018 01:00:00 7,0 5,9 6,2 5,1 6,9 22 12 49 26 W 1004,4 20 1,0
21.01.2018 00:00:00 6,9 5,8 6,2 5,0 6,9 23 12 48 26 W 1003,3 7 2,4
20.01.2018 23:00:00 7,5 6,3 6,7 4,9 6,9 23 13 44 24 W 1002,0 12 1,2
20.01.2018 22:00:00 7,7 6,2 6,7 4,9 6,9 26 14 55 30 W 1002,0 11 5,8
20.01.2018 21:00:00 7,9 7,0 6,9 4,8 6,9 17 9 61 33 WZW 1000,9 4,9 4,1
20.01.2018 20:00:00 7,7 6,6 6,1 4,8 6,9 32 17 55 30 WZW 1001,3 9 1,0
20.01.2018 19:00:00 6,6 5,7 5,3 4,8 6,9 29 16 69 37 WZW 1001,4 3,7 0,4
20.01.2018 18:00:00 5,9 4,7 4,8 4,7 6,9 28 15 61 33 WZW 1001,2 6 0,2
20.01.2018 17:00:00 5,6 3,9 4,1 4,7 6,9 27 15 61 33 WZW 1000,9 20 0,0
20.01.2018 16:00:00 4,6 3,3 3,6 4,7 6,9 15 8 34 18 WZW 1002,2 11 0,4
20.01.2018 15:00:00 4,1 2,3 3,4 4,6 6,9 13 7 37 20 WZW 1003,7 16 1,0
20.01.2018 14:00:00 4,7 1,9 3,6 4,6 6,9 16 9 37 20 ZW 1005,1 20 0,4
20.01.2018 13:00:00 4,9 1,0 4,6 4,6 6,9 16 9 32 17 ZW 1006,8 20 0,0
20.01.2018 12:00:00 4,0 1,5 3,0 4,6 6,9 13 7 32 17 WZW 1009,6 20 0,0
20.01.2018 11:00:00 3,1 1,8 2,4 4,6 6,9 18 10 36 20 ZW 1012,2 20 0,2
20.01.2018 10:00:00 2,7 1,5 2,1 4,6 6,9 18 10 46 25 ZW 1013,6 20 0,2
20.01.2018 09:00:00 2,7 1,4 2,1 4,7 6,9 19 10 42 23 ZW 1014,6 20 0,4
20.01.2018 08:00:00 2,9 1,4 2,1 4,7 6,9 18 10 40 22 WZW 1014,9 17 0,0
20.01.2018 07:00:00 2,8 1,3 1,9 4,7 6,9 16 8 31 17 WZW 1015,6 20 0,0
20.01.2018 06:00:00 2,6 1,4 1,8 4,8 6,9 17 9 38 21 WZW 1016,0 20 0,2
20.01.2018 05:00:00 2,6 1,1 1,8 4,8 6,9 16 9 41 22 ZW 1016,3 20 0,2
20.01.2018 04:00:00 2,6 1,0 1,6 4,8 6,9 19 10 35 19 WZW 1016,9 20 0,0
20.01.2018 03:00:00 2,4 0,8 1,8 4,9 6,9 16 9 36 19 ZW 1017,6 20 0,0
20.01.2018 02:00:00 2,4 0,8 1,8 4,9 6,9 17 9 35 19 ZW 1017,8 20 0,0
20.01.2018 01:00:00 2,5 0,9 1,6 5,0 6,9 19 11 32 18 ZW 1018,3 20 0,0
20.01.2018 00:00:00 2,7 0,9 1,8 5,0 6,9 17 9 35 19 W 1018,4 20 0,0
19.01.2018 23:00:00 2,4 1,1 1,5 5,1 6,9 18 10 38 20 W 1017,9 20 0,0
19.01.2018 22:00:00 2,4 1,1 1,8 5,1 6,9 18 10 34 19 W 1017,4 20 0,0
19.01.2018 21:00:00 2,6 1,3 1,8 5,2 6,9 15 8 31 17 W 1016,7 20 0,0
19.01.2018 20:00:00 2,6 1,3 1,7 5,2 6,9 17 9 43 23 W 1016,1 20 0,8
19.01.2018 19:00:00 3,5 1,5 2,3 5,2 6,9 16 9 31 17 WZW 1015,0 17 0,0
19.01.2018 18:00:00 3,6 1,5 2,1 5,2 6,9 16 9 48 26 WZW 1014,3 20 0,2
19.01.2018 17:00:00 5,0 0,9 3,4 5,2 6,9 21 11 39 21 ZW 1013,9 20 0,0
19.01.2018 16:00:00 4,8 1,8 2,9 5,2 6,9 10 5 31 17 W 1014,2 20 0,6
19.01.2018 15:00:00 4,6 1,1 3,7 5,2 7,0 13 7 44 24 W 1014,5 20 0,0
19.01.2018 14:00:00 5,6 1,1 5,6 5,1 6,9 12 7 34 19 WZW 1014,5 20 0,0
19.01.2018 13:00:00 5,5 1,2 5,1 5,0 6,9 19 10 36 19 W 1015,0 20 0,0
19.01.2018 12:00:00 4,8 1,3 5,2 5,0 6,9 18 10 36 20 WZW 1016,1 20 0,0
19.01.2018 11:00:00 4,8 1,6 5,4 5,0 7,0 16 9 26 14 WZW 1016,4 20 0,0
19.01.2018 10:00:00 4,0 2,0 2,7 5,0 6,9 6 4 24 13 WZW 1016,2 20 0,0
19.01.2018 09:00:00 3,7 1,9 2,8 5,1 7,0 13 7 48 26 W 1015,8 20 0,0
19.01.2018 08:00:00 4,0 1,9 3,5 5,1 7,0 16 9 37 20 W 1015,0 20 0,0
19.01.2018 07:00:00 4,3 2,0 3,5 5,1 6,9 18 10 39 21 W 1014,3 20 0,0
19.01.2018 06:00:00 4,6 2,5 3,9 5,1 6,9 18 10 49 26 W 1013,1 20 0,0
19.01.2018 05:00:00 4,6 2,8 3,6 5,1 7,0 22 12 49 26 W 1012,1 20 0,4
19.01.2018 04:00:00 4,4 2,7 3,5 5,1 6,9 30 16 63 34 W 1011,4 4,2 1,0
19.01.2018 03:00:00 6,1 4,4 5,1 5,1 7,0 18 10 42 23 WZW 1010,6 20 0,2
19.01.2018 02:00:00 6,4 5,3 5,0 5,1 7,0 21 11 46 25 WZW 1010,5 20 0,0
19.01.2018 01:00:00 6,0 4,5 5,1 5,0 7,0 22 12 56 31 W 1010,1 6 1,6
19.01.2018 00:00:00 6,6 5,2 5,8 5,0 7,0 23 13 50 27 WNW 1009,4 12 3,0
18.01.2018 23:00:00 6,4 5,7 5,7 5,0 7,0 13 7 38 21 W 1008,6 8 4,9
18.01.2018 22:00:00 6,0 5,4 5,2 4,9 7,1 14 7 26 14 W 1008,7 9 6,0
18.01.2018 21:00:00 5,7 4,8 5,0 4,8 7,1 12 7 56 31 W 1009,3 16 6,1
18.01.2018 20:00:00 8,0 6,3 6,9 4,8 7,1 24 13 78 42 WZW 1008,0 20 1,4
18.01.2018 19:00:00 8,2 5,8 7,2 4,7 7,1 32 18 72 39 ZW 1008,0 20 0,0
18.01.2018 18:00:00 8,0 5,3 6,3 4,7 7,1 34 18 74 40 ZW 1008,7 20 0,0
18.01.2018 17:00:00 6,9 4,7 5,6 4,6 7,1 33 18 76 41 ZW 1009,0 20 0,2
18.01.2018 16:00:00 6,6 5,1 5,9 4,5 7,1 30 16 74 40 ZW 1009,3 19 0,0
18.01.2018 15:00:00 6,8 5,1 6,1 4,4 7,1 33 18 64 34 ZW 1009,8 10 0,0
18.01.2018 14:00:00 7,0 4,8 5,7 4,4 7,1 35 19 72 39 ZW 1010,4 20 0,0
18.01.2018 13:00:00 6,5 4,7 5,1 4,3 7,1 32 18 77 41 WZW 1011,1 18 0,2
18.01.2018 12:00:00 5,7 3,9 5,2 4,3 7,1 37 20 78 42 ZW 1011,9 13 0,0
18.01.2018 11:00:00 5,8 3,3 4,2 4,3 7,1 40 22 77 41 ZW 1012,0 20 0,0
18.01.2018 10:00:00 5,0 3,0 3,5 4,3 7,1 33 18 76 41 WZW 1011,7 20 0,0
18.01.2018 09:00:00 4,3 2,6 2,8 4,3 7,1 32 17 75 40 ZW 1012,0 19 0,4
18.01.2018 08:00:00 3,6 2,0 2,6 4,3 7,1 34 18 67 36 ZW 1012,3 20 1,0
18.01.2018 07:00:00 3,5 1,9 2,1 4,3 7,1 29 16 67 36 ZW 1012,9 20 1,2
18.01.2018 06:00:00 2,8 1,5 2,0 4,4 7,2 29 16 57 31 ZW 1013,6 20 1,4
18.01.2018 05:00:00 2,7 1,4 1,9 4,3 7,1 31 17 59 32 ZW 1015,2 17 0,8
18.01.2018 04:00:00 2,8 1,5 2,1 4,4 7,1 23 13 53 28 ZW 1016,0 16 0,8
18.01.2018 03:00:00 3,8 0,8 2,7 4,4 7,1 26 14 54 29 ZW 1016,8 20 0,0
18.01.2018 02:00:00 4,1 -0,1 2,5 4,4 7,1 23 12 47 26 ZW 1017,5 20 0,0
18.01.2018 01:00:00 3,9 0,2 2,0 4,5 7,1 23 12 50 27 WZW 1018,1 20 0,0
18.01.2018 00:00:00 3,3 0,3 1,0 4,5 7,1 22 12 45 25 WZW 1018,2 20 0,2
17.01.2018 23:00:00 1,9 0,4 0,8 4,6 7,1 22 12 54 29 WZW 1018,7 20 0,4
17.01.2018 22:00:00 2,5 -0,3 0,9 4,6 7,1 23 13 56 30 WZW 1018,4 20 0,2
17.01.2018 21:00:00 3,3 -2,0 1,9 4,7 7,1 27 14 48 26 WZW 1018,3 20 0,0
17.01.2018 20:00:00 3,3 -1,8 2,1 4,7 7,1 26 14 56 30 WZW 1017,9 20 0,0
17.01.2018 19:00:00 3,3 -1,8 2,4 4,8 7,1 31 17 61 33 W 1017,3 20 0,0
17.01.2018 18:00:00 3,6 -1,8 2,8 4,8 7,1 27 14 49 26 W 1017,0 20 0,0
17.01.2018 17:00:00 3,7 -1,9 2,8 4,8 7,1 25 14 55 30 W 1016,4 20 0,0
17.01.2018 16:00:00 3,9 -1,9 3,5 4,7 7,1 22 12 53 29 WZW 1015,7 20 0,0
17.01.2018 15:00:00 4,0 -1,6 3,6 4,7 7,1 28 15 56 31 W 1014,7 20 0,0
17.01.2018 14:00:00 3,3 -0,5 2,9 4,7 7,2 20 11 53 29 W 1014,4 20 0,0
17.01.2018 13:00:00 2,7 -0,9 2,8 4,7 7,1 27 15 68 37 W 1014,4 20 0,0
17.01.2018 12:00:00 2,0 -1,8 1,9 4,8 7,2 35 19 69 38 W 1013,6 20 0,0
17.01.2018 11:00:00 2,0 -0,1 1,4 4,8 7,1 29 16 53 29 WZW 1012,3 20 0,0
17.01.2018 10:00:00 2,1 0,0 1,4 4,9 7,2 29 16 60 32 W 1010,7 11 0,2
17.01.2018 09:00:00 2,8 -0,3 1,9 4,9 7,1 34 18 70 38 WZW 1009,2 20 0,0
17.01.2018 08:00:00 2,8 -0,3 2,2 4,9 7,2 24 13 51 28 WZW 1008,2 20 0,0
17.01.2018 07:00:00 2,9 0,1 2,3 5,0 7,2 31 17 58 31 WZW 1006,9 20 0,0
17.01.2018 06:00:00 2,8 -0,1 2,3 5,1 7,2 27 15 59 32 W 1006,2 20 0,0
17.01.2018 05:00:00 2,8 1,0 2,1 5,2 7,2 27 15 54 29 W 1005,2 20 0,0
17.01.2018 04:00:00 2,5 1,3 1,3 5,3 7,2 25 13 53 29 W 1004,6 20 0,0

tt = temperatuur
td = dauwpunt
tt 5cm = temperatuur 5cm
tt -20cm = temperatuur -20cm
tt -100cm = temperatuur -100cm
ff = windsnelheid
fx = windstoten
dd = windrichting
ppp = luchtdruk
vv = zicht
rr = neerslag

Weerstations in de omgeving